{"data":{"norad_id":62997,"intl_designator":"2025-031S","name":"STARLINK-32881","alt_names":[],"object_type":"PAYLOAD","status":"ACTIVE","operator":null,"country":"US","launch_date":"2025-02-11","launch_site_code":"AFETR","launch_vehicle":null,"mission":null,"orbit_class":"UNKNOWN","rcs_meters":null,"size_class":null,"mass_kg":null,"dimensions":null,"purposes":["comms"],"wikipedia_slug":null,"has_3d_model":false,"image_url":null,"decayed_at":null,"tle_current":{"epoch":"2026-05-25T04:00:18.899424Z","epoch_age_seconds":50779,"freshness":"FRESH","line1":"1 62997U 25031S   26145.16688541  .00024868  00000+0  90927-3 0  9998","line2":"2 62997  43.0028  71.2390 0001312 266.1274  93.9428 15.27612437 72797","mean_motion":15.27612437,"eccentricity":0.0001312,"inclination_deg":43.0028,"raan_deg":71.239,"arg_perigee_deg":266.1274,"mean_anomaly_deg":93.9428,"bstar":0.00090927,"rev_number":7279,"period_min":94.26474707341,"perigee_km":482.05179483835,"apogee_km":483.852144584,"semimajor_km":6861.0889697112,"source":"CELESTRAK","updated_at":"2026-05-25T13:38:19.833503Z"}}}